Weather History for Martinsville, VA

Change the Weather History Date:

Tuesday, November 26, 2013

  Actual Average (KGSO) Record (KGSO)
Temperature  
Mean Temperature 37 °F 47 °F  
Max Temperature 44 °F 57 °F 74 °F (1990)
Min Temperature 32 °F 37 °F 13 °F (1950)
Degree Days  
Heating Degree Days 28 18  
Month to date heating degree days 370  
Since 1 July heating degree days 603  
Cooling Degree Days 0 0  
Month to date cooling degree days 0  
Year to date cooling degree days 1480  
Moisture  
Dew Point 34 °F    
Average Humidity 94    
Maximum Humidity 99    
Minimum Humidity 59    
Precipitation  
Precipitation 3.23 in 0.10 in 2.32 in (2013)
Month to date precipitation 2.70  
Year to date precipitation 38.81  
Snow  
Snow 0.00 in 0.00 in 0.20 in (1956)
Month to date snowfall 0.1  
Since 1 July snowfall 0.1  
Since 1 September snowfall 0.1  
Snow Depth -    
Sea Level Pressure  
Sea Level Pressure 30.04 in    
Wind  
Wind Speed 2 mph (North)    
Max Wind Speed 12 mph    
Max Gust Speed -    
Visibility 5 miles    
Events Rain    
T = Trace of Precipitation, MM = Missing Value Source: NWS Daily Summary

Daily Weather History Graph

Daily Weather History Graph

Search for Another Location

Airport:

Trip Planner

Search our weather history database for the weather conditions in past years. The results will help you decide how hot, cold, wet, or windy it might be!

Date:

Astronomy

Nov. 26, 2013 Rise Set
Actual Time 7:09 AM EST 5:05 PM EST
Civil Twilight 6:40 AM EST 5:33 PM EST
Nautical Twilight 6:09 AM EST 6:05 PM EST
Astronomical Twilight 5:38 AM EST 6:36 PM EST
Moon 12:21 AM EST (11/26) 1:01 PM EST (11/26)
Length of Visible Light 10h 52m
Length of Day
9h 56m
Last Quarter, 41% of the Moon is Illuminated
Nov 26
Last Quarter
Dec 2
New
Dec 9
First Quarter
Dec 17
Full
Dec 25
Last Quarter

Hourly Weather History & Observations

Time (EST) Temp. Windchill Dew Point Humidity Pressure Visibility Wind Dir Wind Speed Gust Speed Precip Events Conditions
12:15 AM 34.3 °F - 21.2 °F 59% 30.36 in 10.0 mi Calm Calm - N/A Rain Light Rain
12:35 AM 32.7 °F - 29.1 °F 87% 30.36 in 10.0 mi Calm Calm - N/A   Light Drizzle
12:55 AM 32.7 °F - 28.2 °F 83% 30.35 in 10.0 mi Calm Calm - N/A Rain Rain
1:15 AM 32.7 °F - 27.5 °F 81% 30.35 in 10.0 mi Calm Calm - N/A Rain Light Rain
1:35 AM 32.4 °F - 28.0 °F 84% 30.33 in 10.0 mi Calm Calm - N/A Rain Light Rain
1:55 AM 32.0 °F - 29.8 °F 92% 30.33 in 10.0 mi Calm Calm - N/A   Overcast
2:15 AM 32.5 °F - 29.1 °F 87% 30.32 in 10.0 mi Calm Calm - 0.01 in Rain Light Rain
2:35 AM 32.4 °F - 29.5 °F 89% 30.30 in 10.0 mi Calm Calm - 0.01 in Rain Light Rain
2:55 AM 32.4 °F - 29.5 °F 89% 30.30 in 10.0 mi Calm Calm - 0.01 in Rain Rain
3:15 AM 32.4 °F - 29.7 °F 90% 30.30 in 10.0 mi Calm Calm - 0.01 in Rain Light Rain
3:35 AM 32.4 °F - 29.3 °F 88% 30.29 in 10.0 mi Calm Calm - 0.01 in   Light Drizzle
3:55 AM 32.5 °F - 29.3 °F 88% 30.28 in 10.0 mi Calm Calm - 0.01 in Rain Light Rain
4:15 AM 32.5 °F - 30.0 °F 90% 30.28 in 10.0 mi Calm Calm - 0.01 in Rain Rain
4:35 AM 32.5 °F - 31.5 °F 96% 30.29 in 2.0 mi Calm Calm - 0.02 in Rain Rain
4:55 AM 32.5 °F - 31.1 °F 94% 30.29 in 3.0 mi Calm Calm - 0.05 in Rain Rain
5:15 AM 32.4 °F - 31.1 °F 95% 30.29 in 4.0 mi Calm Calm - 0.01 in Rain Light Rain
5:35 AM 32.0 °F - 30.2 °F 93% 30.29 in 5.0 mi Calm Calm - 0.03 in Rain Light Rain
5:55 AM 32.0 °F - 30.0 °F 92% 30.28 in 5.0 mi Calm Calm - 0.05 in Rain Light Rain
6:15 AM 32.0 °F - 29.7 °F 91% 30.28 in 4.0 mi Calm Calm - 0.01 in Rain Light Rain
6:35 AM 32.0 °F - 30.0 °F 92% 30.27 in 5.0 mi Calm Calm - 0.02 in Rain Light Rain
6:55 AM 32.0 °F - 30.0 °F 92% 30.26 in 7.0 mi Calm Calm - 0.03 in Rain Light Rain
7:15 AM 32.0 °F - 30.9 °F 96% 30.25 in 7.0 mi Calm Calm - 0.01 in Rain Light Rain
7:35 AM 32.4 °F - 31.1 °F 95% 30.24 in 5.0 mi Calm Calm - 0.03 in Rain Light Rain
7:55 AM 32.4 °F - 31.1 °F 95% 30.24 in 2.0 mi Calm Calm - 0.04 in Rain Light Rain
8:15 AM 32.5 °F - 31.1 °F 94% 30.23 in 4.0 mi Calm Calm - 0.02 in Rain Rain
8:35 AM 32.5 °F - 31.8 °F 97% 30.22 in 2.5 mi Calm Calm - 0.06 in Rain Rain
8:55 AM 32.9 °F 29.8 °F 32.0 °F 96% 30.22 in 1.8 mi North 3.5 mph - 0.09 in Rain Rain
9:15 AM 33.1 °F 28.7 °F 32.0 °F 96% 30.21 in 2.0 mi NNE 4.6 mph - 0.04 in Rain Rain
9:35 AM 33.1 °F 30.0 °F 32.0 °F 96% 30.22 in 2.0 mi NW 3.5 mph - 0.10 in Rain Rain
9:55 AM 33.3 °F 30.2 °F 32.2 °F 96% 30.20 in 1.8 mi NE 3.5 mph - 0.18 in Rain Light Rain
10:15 AM 33.6 °F - 32.5 °F 96% 30.19 in 2.0 mi Calm Calm - 0.04 in Rain Rain
10:35 AM 33.8 °F - 32.9 °F 96% 30.17 in 1.5 mi Calm Calm - 0.10 in   Overcast
10:55 AM 34.3 °F - 33.4 °F 97% 30.17 in 1.8 mi Calm Calm - 0.13 in Rain Rain
11:15 AM 34.3 °F 31.4 °F 33.4 °F 97% 30.15 in 2.0 mi NE 3.5 mph - 0.04 in Rain Rain
11:35 AM 34.7 °F - 33.8 °F 97% 30.13 in 2.0 mi Calm Calm - 0.08 in Rain Rain
11:55 AM 34.7 °F 31.8 °F 34.0 °F 97% 30.11 in 2.0 mi NNE 3.5 mph - 0.11 in Rain Light Rain
12:15 PM 34.9 °F 32.0 °F 34.0 °F 97% 30.09 in 2.0 mi NNE 3.5 mph - 0.03 in Rain Rain
12:35 PM 35.2 °F 32.4 °F 34.3 °F 97% 30.06 in 2.0 mi NNE 3.5 mph - 0.09 in Rain Rain
12:55 PM 35.2 °F 31.2 °F 34.3 °F 97% 30.04 in 1.8 mi North 4.6 mph - 0.16 in Rain Light Rain
1:15 PM 35.2 °F 29.5 °F 34.3 °F 97% 30.02 in 1.8 mi NNE 6.9 mph - 0.07 in Rain Rain
1:35 PM 35.6 °F 31.7 °F 34.7 °F 97% 30.00 in 1.2 mi NNE 4.6 mph - 0.19 in Rain Light Rain
1:55 PM 35.6 °F 29.2 °F 34.7 °F 97% 29.97 in 1.5 mi NNE 8.1 mph - 0.32 in Rain Light Rain
2:15 PM 35.6 °F 29.9 °F 34.7 °F 97% 29.94 in 1.2 mi North 6.9 mph - 0.08 in Rain Rain
2:35 PM 35.8 °F 30.1 °F 34.9 °F 97% 29.93 in 1.5 mi North 6.9 mph - 0.19 in Rain Heavy Rain
2:55 PM 35.6 °F 30.7 °F 34.7 °F 97% 29.91 in 1.5 mi NE 5.8 mph - 0.29 in Rain Rain
3:15 PM 36.0 °F 33.3 °F 35.1 °F 97% 29.90 in 1.5 mi North 3.5 mph - 0.07 in Rain Heavy Rain
3:35 PM 36.1 °F 33.5 °F 35.4 °F 97% 29.89 in 1.2 mi NNE 3.5 mph - 0.17 in Rain Light Rain
3:55 PM 36.1 °F 32.3 °F 35.6 °F 98% 29.88 in 1.5 mi NE 4.6 mph - 0.26 in Rain Heavy Rain
4:15 PM 36.1 °F 29.9 °F 35.2 °F 97% 29.86 in 2.0 mi North 8.1 mph - 0.06 in Rain Rain
4:35 PM 36.3 °F 29.5 °F 35.4 °F 97% 29.85 in 4.0 mi North 9.2 mph - 0.12 in Rain Rain
4:55 PM 36.5 °F 29.7 °F 35.6 °F 97% 29.85 in 2.5 mi North 9.2 mph - 0.20 in Rain Heavy Rain
5:15 PM 37.0 °F 30.4 °F 36.1 °F 97% 29.83 in 2.0 mi North 9.2 mph - 0.08 in Rain Rain
5:35 PM 37.8 °F 31.3 °F 36.9 °F 97% 29.81 in 3.0 mi North 9.2 mph - 0.18 in Rain Heavy Rain
5:55 PM 37.9 °F 32.1 °F 37.0 °F 97% 29.78 in 4.0 mi NNE 8.1 mph - 0.28 in Rain Heavy Rain
6:15 PM 38.3 °F 31.9 °F 37.4 °F 97% 29.77 in 2.5 mi North 9.2 mph - 0.08 in Rain Heavy Rain
6:35 PM 38.7 °F 34.3 °F 37.8 °F 97% 29.76 in 2.0 mi North 5.8 mph - 0.19 in Rain Rain
6:55 PM 39.2 °F 33.6 °F 38.3 °F 97% 29.75 in 7.0 mi NNE 8.1 mph - 0.25 in Rain Light Rain
7:15 PM 39.7 °F 32.7 °F 38.8 °F 97% 29.78 in 3.0 mi NNW 11.5 mph - 0.13 in Rain Heavy Rain
7:35 PM 40.3 °F 35.5 °F 39.4 °F 97% 29.76 in 5.0 mi North 6.9 mph - 0.24 in Rain Rain
7:55 PM 41.4 °F 36.8 °F 40.5 °F 97% 29.75 in 4.0 mi North 6.9 mph - 0.31 in Rain Heavy Rain
8:15 PM 41.5 °F 37.8 °F 40.6 °F 97% 29.73 in 7.0 mi North 5.8 mph - 0.03 in Rain Rain
8:35 PM 41.9 °F 39.0 °F 41.0 °F 97% 29.73 in 5.0 mi North 4.6 mph - 0.06 in Rain Rain
8:55 PM 42.1 °F - 41.4 °F 97% 29.72 in 7.0 mi Calm Calm - 0.08 in   Drizzle
9:15 PM 41.9 °F - 41.2 °F 97% 29.70 in 7.0 mi Calm Calm - 0.02 in Rain Heavy Rain
9:35 PM 42.1 °F 39.2 °F 41.4 °F 97% 29.69 in 7.0 mi North 4.6 mph - 0.04 in Rain Rain
9:55 PM 42.3 °F 40.5 °F 41.5 °F 97% 29.67 in 4.0 mi NNW 3.5 mph - 0.06 in Rain Rain
10:15 PM 42.6 °F 40.9 °F 41.9 °F 97% 29.66 in 10.0 mi NNW 3.5 mph - N/A Rain Light Rain
10:35 PM 42.8 °F 41.1 °F 42.1 °F 97% 29.65 in 2.5 mi NNW 3.5 mph - 0.09 in Rain Light Rain
10:55 PM 42.8 °F 41.1 °F 42.1 °F 97% 29.64 in 2.5 mi East 3.5 mph - 0.18 in   Overcast
11:15 PM 42.8 °F - 42.1 °F 97% 29.63 in 5.0 mi Calm Calm - 0.05 in Rain Rain
11:35 PM 42.8 °F 41.1 °F 42.1 °F 97% 29.64 in 10.0 mi NNW 3.5 mph - 0.06 in Rain Rain
11:55 PM 43.2 °F 40.5 °F 42.8 °F 99% 29.64 in 7.0 mi NNW 4.6 mph - 0.14 in Rain Heavy Rain